User: anonymous   Login
Location: PFO Observatory
(45.2937°N, 66.0991°W)
Time: 13:30:38
(UTC-04:00)
Language:

Cosmos 1151 Rocket - Orbit

View from above orbital plane
View from above orbital plane
View from above satellite
View from above satellite

Ground track
Ground track

The orbit data is extracted from the following two-line orbital elements,

1 11672U 80005B   17052.84206529  .00000123  00000-0  10733-4 0  9995
2 11672  82.5170 188.2387 0016259 345.2546  14.8195 14.87847009  6249
Epoch (UTC): 21 February 2017 20:12:34
Eccentricity: 0.0016259
inclination: 82.5170°
perigee height: 593 km
apogee height: 616 km
right ascension of ascending node: 188.2387°
argument of perigee: 345.2546°
revolutions per day: 14.87847009
mean anomaly at epoch: 14.8195°
orbit number at epoch: 624

The dashed part of the orbit path shows where the satellite is in the earth's shadow,  

DLR